• In Portugal
  • List of Countries
  • For 7 days
  • Water Temperature
  • Satellite Maps
  • Weather Map
  • Weather Widgets
  • user-avatar
    Login

    Hourly Weather Mayrhofen

    Today, 20 June, Wednesday

    Time Temperature Precipitation Wind Pressure Humidity
    00:00 +9°C° 0 mm 1 mps 623 mmHg 95%
    01:00 +9°C° 0 mm 1 mps 622 mmHg 95%
    02:00 +8°C° 0 mm 1 mps 622 mmHg 94%
    03:00 +8°C° 0 mm 1 mps 622 mmHg 94%
    04:00 +8°C° 0 mm 1 mps 622 mmHg 93%
    05:00 +10°C° 0 mm 1 mps 623 mmHg 86%
    06:00 +11°C° 0 mm 0 mps 624 mmHg 78%
    07:00 +15°C° 0 mm 1 mps 625 mmHg 71%
    08:00 +18°C° 0 mm 1 mps 625 mmHg 65%
    09:00 +19°C° 0 mm 1 mps 625 mmHg 58%
    10:00 +21°C° 0 mm 1 mps 626 mmHg 51%
    11:00 +21°C° 0.1 mm 1 mps 626 mmHg 50%
    12:00 +22°C° 0.1 mm 1 mps 626 mmHg 48%
    13:00 +22°C° 0.1 mm 1 mps 626 mmHg 47%
    14:00 +22°C° 0.3 mm 1 mps 625 mmHg 51%
    15:00 +21°C° 0.3 mm 1 mps 625 mmHg 54%
    16:00 +21°C° 0.3 mm 1 mps 625 mmHg 58%
    17:00 +20°C° 0.8 mm 1 mps 624 mmHg 65%
    18:00 +19°C° 0.8 mm 1 mps 624 mmHg 73%
    19:00 +18°C° 0.8 mm 1 mps 623 mmHg 81%
    20:00 +15°C° 0.6 mm 1 mps 623 mmHg 86%
    21:00 +13°C° 0.6 mm 1 mps 622 mmHg 90%
    22:00 +12°C° 0.6 mm 1 mps 622 mmHg 95%
    23:00 +11°C° 0.2 mm 1 mps 622 mmHg 94%

    Tomorrow, 21 June, Thursday

    Time Temperature Precipitation Wind Pressure Humidity
    00:00 +11°C° 0.2 mm 1 mps 621 mmHg 94%
    01:00 +11°C° 0.2 mm 1 mps 621 mmHg 94%
    02:00 +11°C° 0 mm 1 mps 621 mmHg 94%
    03:00 +10°C° 0 mm 1 mps 620 mmHg 94%
    04:00 +10°C° 0 mm 1 mps 620 mmHg 94%
    05:00 +12°C° 0 mm 1 mps 621 mmHg 89%
    06:00 +13°C° 0 mm 1 mps 621 mmHg 84%
    07:00 +15°C° 0 mm 1 mps 622 mmHg 80%
    08:00 +18°C° 0.1 mm 1 mps 622 mmHg 71%
    09:00 +20°C° 0.1 mm 1 mps 622 mmHg 63%
    10:00 +21°C° 0.1 mm 1 mps 623 mmHg 55%
    11:00 +22°C° 0.7 mm 1 mps 623 mmHg 56%
    12:00 +22°C° 0.7 mm 1 mps 622 mmHg 57%
    13:00 +21°C° 0.7 mm 2 mps 622 mmHg 58%
    14:00 +20°C° 1.4 mm 2 mps 621 mmHg 64%
    15:00 +19°C° 1.4 mm 2 mps 621 mmHg 69%
    16:00 +18°C° 1.4 mm 2 mps 621 mmHg 75%
    17:00 +17°C° 1.7 mm 2 mps 620 mmHg 80%
    18:00 +16°C° 1.7 mm 2 mps 620 mmHg 86%
    19:00 +14°C° 1.7 mm 2 mps 620 mmHg 91%
    20:00 +13°C° 0.8 mm 2 mps 620 mmHg 93%
    21:00 +12°C° 0.8 mm 2 mps 620 mmHg 95%
    22:00 +10°C° 0.8 mm 2 mps 620 mmHg 96%
    23:00 +10°C° 0.3 mm 2 mps 620 mmHg 96%

    Day after tomorrow, 22 June, Friday

    Time Temperature Precipitation Wind Pressure Humidity
    00:00 +9°C° 0.3 mm 2 mps 620 mmHg 96%
    01:00 +8°C° 0.3 mm 2 mps 619 mmHg 97%
    02:00 +8°C° 0.1 mm 2 mps 619 mmHg 97%
    03:00 +7°C° 0.1 mm 2 mps 619 mmHg 97%
    04:00 +7°C° 0.1 mm 2 mps 619 mmHg 97%
    05:00 +7°C° 0 mm 2 mps 619 mmHg 95%
    06:00 +7°C° 0 mm 2 mps 619 mmHg 93%
    07:00 +7°C° 0 mm 2 mps 619 mmHg 91%
    08:00 +8°C° 0 mm 2 mps 620 mmHg 85%
    09:00 +9°C° 0 mm 2 mps 620 mmHg 79%
    10:00 +10°C° 0 mm 3 mps 620 mmHg 72%
    11:00 +11°C° 0 mm 3 mps 621 mmHg 63%
    12:00 +12°C° 0 mm 3 mps 621 mmHg 53%
    13:00 +14°C° 0 mm 3 mps 622 mmHg 43%
    14:00 +14°C° 0 mm 3 mps 622 mmHg 43%
    15:00 +13°C° 0 mm 3 mps 622 mmHg 43%
    16:00 +13°C° 0 mm 3 mps 621 mmHg 43%
    17:00 +12°C° 0 mm 3 mps 621 mmHg 52%
    18:00 +10°C° 0 mm 3 mps 621 mmHg 61%
    19:00 +9°C° 0 mm 3 mps 621 mmHg 71%
    20:00 +7°C° 0 mm 2 mps 621 mmHg 77%
    21:00 +6°C° 0 mm 2 mps 621 mmHg 83%
    22:00 +5°C° 0 mm 2 mps 621 mmHg 89%
    23:00 +5°C° 0 mm 2 mps 620 mmHg 90%

    23 June, Saturday

    Time Temperature Precipitation Wind Pressure Humidity
    00:00 +5°C° 0 mm 1 mps 620 mmHg 91%
    01:00 +5°C° 0 mm 1 mps 620 mmHg 92%
    02:00 +4°C° 0 mm 1 mps 620 mmHg 92%
    03:00 +4°C° 0 mm 1 mps 620 mmHg 93%
    04:00 +4°C° 0 mm 1 mps 620 mmHg 93%
    05:00 +5°C° 0 mm 1 mps 620 mmHg 87%
    06:00 +6°C° 0 mm 1 mps 620 mmHg 80%
    07:00 +7°C° 0 mm 1 mps 621 mmHg 74%
    08:00 +9°C° 0 mm 1 mps 621 mmHg 66%
    09:00 +10°C° 0 mm 2 mps 622 mmHg 57%
    10:00 +12°C° 0 mm 2 mps 622 mmHg 49%
    11:00 +13°C° 0 mm 2 mps 622 mmHg 46%
    12:00 +14°C° 0 mm 2 mps 623 mmHg 43%
    13:00 +14°C° 0 mm 3 mps 623 mmHg 40%
    14:00 +14°C° 0 mm 3 mps 622 mmHg 45%
    15:00 +13°C° 0 mm 3 mps 622 mmHg 49%
    16:00 +12°C° 0 mm 3 mps 622 mmHg 54%
    17:00 +11°C° 0.1 mm 3 mps 621 mmHg 63%
    18:00 +10°C° 0.1 mm 3 mps 621 mmHg 71%
    19:00 +9°C° 0.1 mm 2 mps 621 mmHg 80%
    20:00 +7°C° 0.1 mm 2 mps 621 mmHg 85%
    21:00 +6°C° 0.1 mm 2 mps 621 mmHg 89%
    22:00 +6°C° 0.1 mm 1 mps 621 mmHg 94%
    23:00 +6°C° 0 mm 1 mps 620 mmHg 94%

    24 June, Sunday

    Time Temperature Precipitation Wind Pressure Humidity
    00:00 +5°C° 0 mm 1 mps 620 mmHg 94%
    01:00 +5°C° 0 mm 1 mps 620 mmHg 94%
    02:00 +5°C° 0 mm 1 mps 620 mmHg 94%
    03:00 +4°C° 0 mm 1 mps 620 mmHg 94%
    04:00 +4°C° 0 mm 1 mps 620 mmHg 95%
    05:00 +5°C° 0 mm 1 mps 620 mmHg 89%
    06:00 +6°C° 0 mm 1 mps 621 mmHg 82%
    07:00 +7°C° 0 mm 1 mps 621 mmHg 76%
    08:00 +9°C° 0 mm 1 mps 622 mmHg 69%
    09:00 +9°C° 0 mm 2 mps 622 mmHg 62%
    10:00 +12°C° 0 mm 2 mps 623 mmHg 54%
    11:00 +13°C° 0 mm 2 mps 623 mmHg 54%
    12:00 +13°C° 0 mm 2 mps 623 mmHg 53%
    13:00 +14°C° 0 mm 2 mps 623 mmHg 53%
    14:00 +12°C° 0.1 mm 3 mps 623 mmHg 56%
    15:00 +12°C° 0.1 mm 3 mps 623 mmHg 58%
    16:00 +12°C° 0.1 mm 3 mps 622 mmHg 61%
    17:00 +12°C° 0.1 mm 2 mps 622 mmHg 67%
    18:00 +10°C° 0.1 mm 2 mps 622 mmHg 72%
    19:00 +9°C° 0.1 mm 2 mps 622 mmHg 78%
    20:00 +8°C° 0.1 mm 2 mps 621 mmHg 84%
    21:00 +7°C° 0.1 mm 1 mps 621 mmHg 90%
    22:00 +5°C° 0.1 mm 1 mps 621 mmHg 96%
    23:00 +5°C° 0 mm 1 mps 620 mmHg 96%

    25 June, Monday

    Time Temperature Precipitation Wind Pressure Humidity
    00:00 +4°C° 0 mm 1 mps 620 mmHg 95%
    01:00 +4°C° 0 mm 1 mps 620 mmHg 95%
    02:00 +4°C° 0 mm 1 mps 620 mmHg 93%
    03:00 +4°C° 0 mm 1 mps 620 mmHg 92%
    04:00 +3°C° 0 mm 1 mps 620 mmHg 90%
    05:00 +5°C° 0 mm 1 mps 620 mmHg 82%
    06:00 +7°C° 0 mm 1 mps 621 mmHg 73%
    07:00 +9°C° 0 mm 1 mps 622 mmHg 65%
    08:00 +11°C° 0 mm 1 mps 623 mmHg 58%
    09:00 +13°C° 0 mm 2 mps 623 mmHg 51%
    10:00 +15°C° 0 mm 2 mps 624 mmHg 44%
    11:00 +15°C° 0 mm 2 mps 624 mmHg 43%
    12:00 +16°C° 0 mm 3 mps 624 mmHg 42%
    13:00 +17°C° 0 mm 3 mps 624 mmHg 41%
    14:00 +17°C° 0 mm 3 mps 624 mmHg 44%
    15:00 +17°C° 0 mm 3 mps 624 mmHg 47%
    16:00 +16°C° 0 mm 3 mps 624 mmHg 50%
    17:00 +14°C° 0 mm 3 mps 623 mmHg 58%
    18:00 +13°C° 0 mm 3 mps 623 mmHg 66%
    19:00 +13°C° 0 mm 2 mps 623 mmHg 73%
    20:00 +10°C° 0 mm 2 mps 622 mmHg 81%
    21:00 +8°C° 0 mm 2 mps 622 mmHg 89%
    22:00 +7°C° 0 mm 1 mps 622 mmHg 96%
    23:00 +7°C° 0 mm 1 mps 621 mmHg 96%
    Show more